This is the latest recevied weather packets stored in our database for station/object TG9SRP-22. If no packets are shown the sender has not sent any weather packets the latest 10 day(s).
| Time | Temp. | Humidity | Pressure | Rain* | Wind** | Luminosity | Snow |
|---|---|---|---|---|---|---|---|
| 1777145952 | 24.44° C | 64% | 1011 hPa | 0 mm | - | - | - |
| 1777145352 | 23.33° C | 64% | 1012 hPa | 0 mm | - | - | - |
| 1777144751 | 24.44° C | 64% | 1012 hPa | 0 mm | - | - | - |
| 1777144151 | 23.89° C | 53% | 1012 hPa | 0 mm | - | - | - |
| 1777143550 | 25° C | 47% | 1012 hPa | 0 mm | - | - | - |
| 1777142949 | 25° C | 47% | 1012 hPa | 0 mm | - | - | - |
| 1777142349 | 22.78° C | 47% | 1012 hPa | 0 mm | - | - | - |
| 1777141748 | 22.78° C | 47% | 1012 hPa | 0 mm | - | - | - |
| 1777141148 | 23.89° C | 47% | 1012 hPa | 0 mm | - | - | - |
| 1777140547 | 25° C | 47% | 1012 hPa | 0 mm | - | - | - |
| 1777139947 | 22.78° C | 64% | 1012 hPa | 0 mm | - | - | - |
| 1777139346 | 23.89° C | 65% | 1012 hPa | 0 mm | - | - | - |
| 1777138745 | 22.78° C | 66% | 1012 hPa | 0 mm | - | - | - |
| 1777138145 | 23.89° C | 61% | 1013 hPa | 0 mm | - | - | - |
| 1777137544 | 24.44° C | 61% | 1013 hPa | 0 mm | - | - | - |
| 1777136944 | 22.22° C | 66% | 1013 hPa | 0 mm | - | - | - |
| 1777136343 | 23.33° C | 63% | 1013 hPa | 0 mm | - | - | - |
| 1777135742 | 22.78° C | 62% | 1013 hPa | 0 mm | - | - | - |
| 1777135142 | 23.33° C | 63% | 1013 hPa | 0 mm | - | - | - |
| 1777134541 | 21.11° C | 70% | 1014 hPa | 0 mm | - | - | - |
| 1777133941 | 22.22° C | 65% | 1014 hPa | 0 mm | - | - | - |
| 1777133340 | 22.78° C | 66% | 1014 hPa | 0 mm | - | - | - |
| 1777132740 | 21.11° C | 72% | 1014 hPa | 0 mm | - | - | - |
| 1777132139 | 19.44° C | 66% | 1014 hPa | 0 mm | - | - | - |
| 1777131538 | 19.44° C | 66% | 1014 hPa | 0 mm | - | - | - |
* Rain latest hour (hover to see other rain measurements)
** Current wind speed in m/s (hover to see current wind gust speed)